Location: Eckley Miners' Village
(40.9930°N, 75.8630°W)
Time: 11:29:13
(UTC-04:00)

Vanguard 1 Rocket - Pass Details

Date: 07 March 2026
Orbit: 654 x 4213 km, 34.3° (Epoch: 11 April)

Event Time Altitude Azimuth Distance (km) Brightness Sun altitude
Rises 07:55:18 0° 214° (SW) 3,076 10.0 15.1°
Reaches altitude 10° 07:58:30 10° 191° (S) 2,053 9.4 15.7°
Maximum altitude 08:01:10 16° 153° (SSE) 1,721 9.8 16.2°
Drops below altitude 10° 08:03:58 10° 115° (ESE) 2,177 12.2 16.7°
Sets 08:07:32 0° 93° (E) 3,373 11.7 17.3°
